Location: Chervonnoye
(48.6000°N, 34.4000°E)
Time: 17:27:38
(UTC+00:00)

M-CUBED/EXP-1 PRIME - Visible Passes

Search period start: 03 December 2021 00:00
Search period end: 13 December 2021 00:00
Orbit: 427 x 652 km, 101.7° (Epoch: 02 December)

Date Brightness Start Highest point End Pass type
(mag) Time Alt. Az. Time Alt. Az. Time Alt. Az.
03 Dec ? 03:39:12 10° NE 03:42:09 17° E 03:45:01 10° SE visible
03 Dec ? 14:25:03 10° SE 14:28:47 34° ENE 14:32:44 10° N visible
03 Dec ? 15:59:16 10° SSW 16:02:51 29° W 16:06:39 10° NW visible
04 Dec ? 03:32:14 10° ENE 03:34:31 14° E 03:36:44 10° ESE visible
04 Dec ? 14:17:45 10° ESE 14:21:20 28° ENE 14:25:06 10° N visible
04 Dec ? 15:51:27 10° S 15:55:16 36° WSW 15:59:19 10° NW visible
05 Dec ? 03:25:44 10° ENE 03:26:51 11° E 03:27:57 10° ESE visible
05 Dec ? 15:43:42 10° S 15:47:41 46° WSW 15:51:55 10° NNW visible
06 Dec ? 15:36:00 10° S 15:40:06 58° WSW 15:44:28 10° NNW visible
07 Dec ? 04:42:05 10° NNE 04:46:31 54° ESE 04:50:43 10° S visible
07 Dec ? 15:28:21 10° SSE 15:32:32 72° WSW 15:36:59 10° NNW visible
08 Dec ? 04:34:38 10° NNE 04:38:55 43° ESE 04:42:59 10° S visible
08 Dec ? 15:20:45 10° SSE 15:24:59 89° W 15:29:28 10° NNW visible
08 Dec ? 16:58:23 10° WSW 16:59:43 11° W 17:01:04 10° WNW visible
09 Dec ? 04:27:13 10° NE 04:31:19 35° ESE 04:35:12 10° SSE visible
09 Dec ? 15:13:11 10° SSE 15:17:25 74° ENE 15:21:54 10° NNW visible
09 Dec ? 16:49:42 10° SW 16:52:02 14° W 16:54:24 10° WNW visible
10 Dec ? 04:19:50 10° NE 04:23:40 28° E 04:27:19 10° SSE visible
10 Dec ? 15:05:40 10° SE 15:09:53 60° ENE 15:14:19 10° NNW visible
10 Dec ? 16:41:25 10° SW 16:44:20 18° W 16:47:20 10° NW visible
11 Dec ? 04:12:31 10° NE 04:16:00 23° E 04:19:21 10° SSE visible
11 Dec ? 14:58:11 10° SE 15:02:21 49° ENE 15:06:42 10° N visible
11 Dec ? 16:33:18 10° SSW 16:36:39 22° W 16:40:07 10° NW visible
12 Dec ? 04:05:16 10° NE 04:08:19 18° E 04:11:15 10° SE visible
12 Dec ? 14:50:45 10° SE 14:54:49 40° ENE 14:59:02 10° N visible
12 Dec ? 16:25:17 10° SSW 16:28:58 27° W 16:32:47 10° NW visible
